This demonstration page uses our WeatherBlox Daily Observations layout. Learn more.

Left ArrowRight Arrow

Hourly Observations for August 14, 2022

Temp ( °F °C ) Dew Point ( °F °C ) Humidity (%) Winds ( mph kmh ) Pressure ( in mb ) Visibility ( mi km ) Precip ( " mm )
12:53 am 00:53 Clear 64 17.8 61 16.1 90 90 Calm 30.04 1017 10 16 0.00 0.00
1:53 am 01:53 Clear 63 17.2 60 15.6 90 90 Calm 30.03 1017 10 16 0.00 0.00
2:53 am 02:53 Clear 64 17.8 60 15.6 87 87 Calm 30.01 1016 10 16 0.00 0.00
3:53 am 03:53 Mostly Clear 63 17.2 59 15 87 87 Calm 30.00 1016 10 16 0.00 0.00
4:53 am 04:53 Mostly Clear 63 17.2 60 15.6 90 90 Calm 29.99 1016 10 16 0.00 0.00
5:53 am 05:53 Mostly Clear 64 17.8 60 15.6 87 87 Calm 29.98 1015 10 16 0.00 0.00
6:53 am 06:53 Cloudy 65 18.3 61 16.1 87 87 Calm 29.98 1015 10 16 0.01 0.13
7:53 am 07:53 Mostly Cloudy 66 18.9 61 16.1 84 84 Calm 29.97 1015 10 16 0.01 0.13
8:53 am 08:53 Cloudy with Light Rain 65 18.3 63 17.2 93 93 Calm 30.01 1016 4 6 0.02 0.51
9:53 am 09:53 Cloudy with Light Rain 67 19.4 65 18.3 93 93 Calm 29.99 1016 5 8 0.05 1.27
10:02 am 10:02 Cloudy with Heavy Rain 67 19.4 65 18.3 93 93 VRB 3 6 30.00 1016 2 3 0.03 0.76
10:09 am 10:09 Cloudy with Heavy Rain 66 18.9 64 17.8 93 93 VRB 3 6 30.00 1016 1 1 0.10 2.54
10:27 am 10:27 Cloudy with Light Rain 65 18.3 64 17.8 97 97 Calm 29.99 1016 4 6 0.26 6.60
10:40 am 10:40 Cloudy 66 18.9 64 17.8 93 93 Calm 29.99 1016 10 16 0.26 6.60
10:53 am 10:53 Cloudy with Light Rain 67 19.4 65 18.3 93 93 E 6 9 29.98 1015 10 16 0.26 6.60
11:44 am 11:44 Cloudy with Heavy Rain 67 19.4 65 18.3 93 93 Calm 29.97 1015 2 3 0.05 1.27
11:53 am 11:53 Cloudy with Light Rain 68 20 65 18.3 90 90 Calm 29.97 1015 6 10 0.05 1.27
12:53 pm 12:53 Cloudy 70 21.1 65 18.3 84 84 VRB 3 6 29.95 1014 10 16 0.01 0.13
1:53 pm 13:53 Partly Cloudy 72 22.2 65 18.3 79 79 SE 5 7 29.93 1014 10 16 0.00 0.00
2:53 pm 14:53 Mostly Cloudy 76 24.4 66 18.9 71 71 VRB 5 7 29.91 1013 10 16 0.00 0.00
3:53 pm 15:53 Cloudy 76 24.4 64 17.8 67 67 VRB 3 6 29.90 1012 10 16 0.00 0.00
4:53 pm 16:53 Cloudy 74 23.3 69 20.6 85 85 Calm 29.90 1012 10 16 0.01 0.13
5:53 pm 17:53 Cloudy 72 22.2 69 20.6 91 91 Calm 29.90 1013 10 16 0.01 0.13
6:39 pm 18:39 Cloudy with Light Rain 73 22.8 67 19.4 81 81 NNW 5 7 29.89 1012 2 2 0.06 1.52
6:53 pm 18:53 Cloudy with Heavy Rain 70 21.1 69 20.6 97 97 Calm 29.91 1013 1 1 0.16 4.06
7:04 pm 19:04 Cloudy with Rain 70 21.1 68 20 93 93 E 5 7 29.89 1012 3 5 0.03 0.76
7:53 pm 19:53 Cloudy 71 21.7 68 20 90 90 E 5 7 29.91 1013 10 16 0.03 0.76
8:53 pm 20:53 Cloudy 69 20.6 67 19.4 93 93 ENE 3 6 29.91 1013 10 16 0.00 0.00
9:53 pm 21:53 Cloudy 69 20.6 66 18.9 90 90 ENE 5 7 29.91 1013 10 16 0.00 0.00
10:53 pm 22:53 Cloudy 68 20 65 18.3 90 90 E 6 9 29.92 1013 10 16 0.00 0.00
11:32 pm 23:32 Cloudy 68 20 65 18.3 90 90 E 5 7 29.93 1013 10 16 0.00 0.00
11:53 pm 23:53 Mostly Cloudy 67 19.4 64 17.8 90 90 E 6 9 29.92 1013 10 16 0.00 0.00

Powered by AerisWeather